Wind_Speed
100 93 88 85 85 82 79 82 85 87 88 91 89 85 82 80 77 75 74 71 68 65 62 60 57 56 56 59 62 62 63 64 65 62 60 58 54 52 49 44 44 44 44
104 98 92 88 86 85 83 80 80 82 84 85 89 90 87 84 81 79 77 74 69 68 67 64 64 66 67 67 67 68 67 67 66 63 59 57 53 50 47 46 47 46 44
109 104 98 92 89 86 84 82 79 76 78 81 83 85 88 86 83 81 79 75 73 72 73 73 74 73 73 72 72 71 69 67 66 64 60 56 50 46 47 48 47 45 46
115 108 104 97 92 88 85 84 82 79 77 76 77 81 84 85 87 86 84 82 79 78 77 76 75 74 73 73 71 71 70 68 65 62 58 51 47 48 50 48 46 47 49
118 114 108 101 96 91 88 86 83 83 81 77 75 77 79 82 85 85 84 83 83 81 80 80 79 77 77 77 76 73 70 65 62 58 53 50 49 50 50 48 48 49 50
120 118 113 107 100 95 90 90 88 86 84 80 77 74 74 76 78 80 80 82 83 82 81 81 79 78 76 75 73 70 64 61 58 55 51 51 51 52 49 48 49 50 52
121 121 118 111 105 99 93 90 90 89 86 82 80 77 75 73 73 73 72 73 74 73 73 74 74 73 70 69 66 64 60 58 57 55 54 53 52 52 51 51 52 54 54
122 122 120 116 109 103 97 92 90 91 89 85 83 81 79 75 74 73 70 69 69 68 67 68 68 66 66 66 64 60 58 58 58 57 56 55 55 53 54 55 56 57 58
123 122 123 120 114 107 102 97 93 90 91 89 86 84 80 78 77 76 72 70 67 65 65 66 66 66 65 63 61 61 61 59 56 58 57 57 56 56 57 58 60 61 63
123 122 124 123 118 111 105 101 96 93 90 90 88 85 82 80 78 76 73 70 68 66 64 63 63 63 63 63 63 62 62 62 61 60 58 58 58 59 60 61 62 64 66
124 122 124 124 121 116 109 105 100 96 92 89 88 86 84 82 79 76 73 71 68 66 65 66 65 66 66 66 65 65 66 65 63 62 62 62 62 63 63 64 65 67 68
123 123 123 125 124 121 115 109 106 102 98 93 90 87 85 83 80 78 75 73 72 71 70 70 68 68 69 69 70 70 68 68 67 66 66 67 67 68 68 70 71 71 72
123 124 122 125 126 124 120 115 109 106 103 98 94 90 88 86 83 81 78 77 77 76 75 74 73 73 74 74 74 73 73 72 71 71 71 72 71 71 73 73 73 75 75
124 124 123 123 126 125 123 119 115 110 107 103 99 95 92 89 88 85 83 83 82 81 79 78 77 76 78 79 78 77 76 75 76 76 76 76 76 77 76 76 77 78 79
125 125 126 123 125 126 123 122 119 115 111 108 105 101 97 95 93 92 89 88 86 86 84 82 82 81 81 81 82 81 81 80 80 80 80 81 81 81 80 80 81 82 83
124 125 126 125 124 126 125 123 122 119 115 111 109 107 103 101 98 97 96 93 92 91 89 87 87 86 86 86 86 86 86 85 85 85 85 85 85 85 84 84 86 86 84
123 126 126 127 125 126 127 125 124 123 120 116 113 110 108 106 104 103 100 97 96 95 95 94 93 91 91 90 90 91 91 91 90 90 89 89 89 89 88 89 88 86 86
124 127 128 128 128 126 128 127 124 123 122 121 117 113 111 110 108 107 104 102 101 100 99 98 97 96 95 94 94 94 94 93 93 93 93 94 93 93 92 91 90 90 91
123 126 128 129 129 126 127 129 128 124 123 122 122 120 116 113 111 110 108 106 104 103 102 101 100 99 98 98 97 98 98 97 98 98 96 96 96 94 96 93 93 94 91
122 129 129 128 129 128 126 129 130 130 126 123 122 121 120 117 115 112 110 108 107 107 107 106 105 104 102 102 101 102 101 100 99 100 100 99 98 97 97 98 96 95 94
120 126 128 127 128 130 129 128 131 131 129 127 124 121 118 117 116 115 114 113 113 112 113 110 108 106 106 106 106 105 104 104 104 104 103 102 102 102 99 99 97 96 97
110 120 124 127 127 129 131 130 129 131 131 131 128 126 124 121 119 117 115 114 112 112 113 112 109 107 108 107 107 108 108 108 108 106 106 105 104 103 101 100 101 101 100
104 115 123 127 130 132 132 131 129 128 131 132 131 129 126 125 124 123 121 119 118 118 118 117 114 111 110 111 111 112 111 112 111 109 107 105 105 104 104 104 104 104 103
101 110 123 127 129 130 130 130 131 130 127 127 129 130 131 130 127 125 123 122 121 119 119 120 119 119 118 118 117 115 114 113 112 110 109 108 108 108 107 106 105 104 102
94 103 110 120 126 128 130 130 131 129 127 127 126 128 130 131 132 131 129 127 125 124 124 123 121 119 118 118 118 117 116 117 116 115 115 113 112 111 110 107 106 105 105
89 94 102 112 121 125 127 129 130 131 130 127 127 127 127 126 126 127 129 130 130 130 129 130 129 127 126 124 123 122 122 122 121 118 118 116 115 113 111 109 108 108 105
Wind_Direction
229 230 230 231 232 232 232 232 233 232 231 232 232 234 234 236 236 237 240 241 243 245 247 249 249 250 249 253 256 261 265 267 271 275 278 281 280 278 275 274 277 281 287
226 228 228 228 230 230 231 232 232 231 231 231 232 232 234 235 236 239 240 242 243 243 243 245 245 247 251 254 258 261 264 268 270 273 275 276 275 271 271 272 274 280 287
224 225 226 227 228 230 230 230 233 233 232 231 231 232 233 235 237 239 240 240 239 241 243 243 246 250 253 256 259 262 264 266 269 271 272 271 266 267 267 269 273 280 287
223 223 225 225 226 227 229 229 231 232 232 231 231 232 232 232 234 236 238 240 241 243 246 248 250 252 254 256 258 261 264 266 268 269 270 263 261 262 266 268 273 280 286
223 221 223 223 225 225 226 228 229 230 232 232 232 232 231 231 233 235 236 238 241 243 245 247 249 250 252 255 258 260 262 264 263 263 259 256 258 262 265 268 276 281 285
220 221 221 222 222 224 225 226 228 229 230 231 232 232 233 233 234 235 236 237 240 242 244 246 248 249 251 252 254 256 256 257 257 256 253 254 257 263 266 271 274 280 286
219 219 220 221 221 222 223 225 227 228 229 230 231 232 233 233 234 236 237 238 240 241 243 244 246 247 247 248 249 249 249 250 252 251 252 254 258 261 266 271 275 280 284
219 219 219 220 221 221 221 223 225 227 228 230 230 230 232 233 235 235 235 236 238 239 239 240 242 243 244 245 244 244 243 245 247 248 251 255 258 263 267 272 275 280 284
218 218 218 220 220 221 220 221 223 225 228 229 230 231 232 232 233 234 235 236 237 238 238 239 240 242 244 242 240 239 242 244 246 249 251 255 260 264 268 271 275 280 284
215 217 219 219 220 221 221 220 222 224 226 228 229 231 232 233 233 235 235 235 236 237 238 239 240 241 240 238 237 239 242 244 246 249 252 256 261 265 269 272 277 281 284
213 215 217 219 219 220 221 221 221 223 225 226 228 230 232 233 234 235 235 235 236 238 238 238 238 239 238 238 238 242 244 247 250 253 255 258 261 265 271 274 279 282 287
213 215 216 218 219 220 220 222 221 221 223 225 226 228 230 231 232 232 233 234 235 237 239 240 241 241 240 240 242 244 246 249 251 256 260 262 263 266 270 274 278 283 288
212 215 215 217 219 220 221 221 222 223 223 224 225 226 227 229 231 232 233 234 236 238 239 241 243 243 242 242 244 246 249 251 255 258 261 263 266 270 272 275 280 283 287
211 215 215 216 217 220 221 223 223 222 224 224 224 225 227 228 230 231 233 235 236 238 240 242 243 245 246 246 247 249 252 255 258 261 263 266 268 270 273 277 280 283 287
210 213 215 216 217 218 221 223 224 224 224 224 224 225 226 228 230 232 233 235 237 239 241 242 244 245 246 248 250 252 254 257 260 263 265 267 269 271 274 277 279 282 284
210 212 215 216 217 218 220 222 224 225 225 225 226 226 226 228 231 233 235 236 238 240 241 242 244 246 247 248 250 252 255 257 259 262 264 267 270 272 274 277 279 282 285
212 211 213 216 216 218 219 222 223 225 226 227 227 227 228 229 230 233 236 237 239 240 242 244 245 247 249 250 252 254 255 258 260 262 264 267 269 272 274 277 279 282 283
214 212 213 215 217 217 219 220 223 225 227 228 228 229 230 230 231 233 234 237 239 241 242 244 247 248 250 251 253 254 256 259 261 263 265 267 270 272 274 277 279 280 283
213 214 214 214 217 218 219 221 222 224 226 229 231 231 231 233 234 235 236 237 239 241 243 245 247 249 250 252 253 255 257 259 261 263 266 267 270 272 274 277 279 281 281
212 213 214 214 216 219 219 221 223 224 225 227 230 232 234 236 237 238 239 240 241 243 244 245 247 248 251 253 254 256 258 260 262 263 266 268 270 273 274 277 279 279 281
213 213 214 216 216 218 220 221 223 225 226 227 228 230 233 236 238 240 242 243 243 244 246 247 248 250 252 254 255 257 259 260 262 264 266 268 270 273 275 275 277 279 280
214 214 214 216 218 218 220 222 223 225 227 229 230 231 232 233 235 238 241 243 245 248 250 251 250 252 253 255 257 259 261 262 264 265 267 269 271 272 273 274 276 278 281
214 214 214 216 217 219 220 222 224 225 227 230 231 232 233 235 235 236 239 240 243 246 248 250 251 252 253 255 257 259 261 262 264 266 267 269 270 271 273 275 277 278 280
216 215 216 216 218 219 221 223 225 227 228 229 232 233 234 235 236 238 239 241 242 244 246 249 251 251 253 254 256 258 260 262 263 265 267 269 271 272 274 275 277 277 279
217 217 217 217 219 220 220 222 224 226 229 231 231 233 235 236 237 238 240 241 243 245 247 248 250 252 254 255 256 258 260 262 264 266 268 269 271 273 274 275 277 278 279
220 219 217 218 219 220 222 223 225 226 227 229 232 234 235 237 238 240 241 243 244 245 247 249 251 252 253 254 256 258 260 262 264 266 268 269 270 271 273 274 276 278 280
Height
10568 10582 10596 10608 10619 10629 10640 10649 10657 10666 10677 10687 10695 10704 10711 10718 10728 10734 10740 10748 10755 10761 10765 10770 10774 10777 10781 10785 10786 10788 10790 10792 10793 10796 10797 10798 10796 10795 10795 10796 10796 10794 10792
10549 10563 10577 10588 10598 10610 10620 10629 10638 10648 10659 10669 10678 10686 10692 10703 10711 10720 10728 10737 10743 10747 10752 10758 10762 10765 10769 10772 10773 10776 10779 10781 10782 10784 10787 10786 10786 10785 10787 10787 10785 10784 10784
10528 10541 10554 10568 10579 10592 10604 10613 10621 10632 10641 10650 10660 10669 10679 10689 10699 10706 10713 10719 10724 10731 10736 10744 10748 10753 10756 10758 10761 10763 10766 10769 10771 10773 10775 10774 10774 10777 10776 10776 10776 10776 10774
10501 10520 10533 10547 10559 10571 10586 10597 10605 10614 10623 10633 10643 10654 10663 10673 10679 10686 10692 10701 10710 10717 10724 10730 10735 10739 10742 10744 10747 10750 10753 10757 10759 10762 10763 10763 10764 10766 10766 10766 10766 10766 10764
10474 10496 10511 10526 10539 10552 10566 10579 10589 10596 10605 10617 10626 10635 10646 10654 10661 10671 10680 10687 10693 10701 10708 10713 10718 10723 10726 10729 10733 10736 10741 10745 10746 10749 10751 10751 10753 10755 10756 10756 10756 10755 10754
10447 10469 10488 10503 10519 10533 10547 10560 10570 10578 10588 10600 10610 10621 10630 10638 10646 10654 10663 10671 10677 10684 10691 10698 10704 10708 10712 10715 10719 10724 10729 10732 10735 10736 10739 10741 10743 10744 10744 10745 10746 10745 10744
10420 10442 10465 10483 10498 10512 10527 10540 10552 10562 10573 10584 10594 10604 10614 10623 10631 10640 10650 10657 10663 10670 10675 10681 10687 10693 10697 10702 10707 10711 10715 10719 10723 10725 10727 10730 10732 10733 10733 10733 10734 10733 10733
10394 10418 10440 10461 10477 10492 10507 10521 10533 10545 10555 10566 10577 10586 10596 10607 10615 10624 10633 10641 10647 10653 10661 10666 10673 10679 10684 10688 10693 10698 10703 10707 10710 10714 10716 10718 10720 10721 10722 10721 10721 10721 10719
10371 10395 10416 10436 10456 10472 10487 10501 10514 10528 10538 10549 10560 10571 10581 10591 10599 10606 10617 10625 10633 10639 10646 10652 10659 10665 10671 10676 10681 10686 10690 10694 10697 10700 10703 10705 10708 10709 10710 10710 10709 10708 10706
10348 10371 10393 10413 10434 10452 10468 10482 10496 10509 10521 10533 10544 10555 10566 10574 10583 10592 10603 10612 10619 10626 10633 10640 10646 10651 10656 10662 10668 10672 10677 10680 10683 10686 10690 10692 10694 10696 10696 10697 10696 10694 10693
10324 10346 10368 10390 10410 10430 10447 10462 10477 10491 10504 10516 10528 10539 10550 10559 10569 10579 10588 10597 10605 10612 10619 10624 10630 10636 10643 10649 10655 10659 10663 10666 10670 10673 10676 10679 10681 10682 10682 10682 10682 10680 10679
10305 10325 10347 10367 10386 10406 10423 10441 10456 10470 10484 10498 10511 10523 10534 10544 10554 10564 10573 10582 10590 10596 10602 10609 10617 10623 10629 10635 10640 10644 10649 10652 10656 10658 10661 10662 10665 10667 10669 10668 10667 10666 10664
10284 10304 10326 10345 10364 10383 10402 10419 10436 10451 10464 10479 10493 10506 10518 10528 10538 10548 10557 10566 10573 10580 10587 10595 10602 10608 10614 10619 10624 10630 10634 10637 10640 10643 10645 10646 10649 10652 10652 10653 10653 10650 10648
10263 10282 10304 10324 10344 10362 10380 10397 10414 10431 10446 10459 10474 10488 10500 10511 10521 10531 10540 10548 10556 10562 10571 10578 10585 10592 10597 10603 10608 10613 10618 10622 10623 10627 10628 10630 10633 10634 10635 10636 10636 10634 10632
10239 10260 10281 10303 10322 10341 10359 10376 10393 10409 10424 10439 10454 10468 10482 10492 10502 10511 10522 10530 10538 10545 10553 10561 10567 10574 10579 10585 10590 10595 10600 10605 10607 10609 10611 10612 10614 10617 10619 10619 10618 10618 10617
10218 10239 10258 10280 10300 10319 10337 10354 10371 10387 10403 10419 10434 10447 10461 10472 10483 10491 10500 10511 10519 10526 10534 10541 10548 10553 10560 10567 10572 10577 10582 10586 10589 10590 10593 10594 10596 10598 10599 10600 10599 10599 10598
10196 10218 10238 10258 10277 10297 10316 10333 10348 10364 10380 10396 10412 10426 10440 10451 10461 10469 10481 10492 10500 10508 10514 10520 10527 10533 10541 10546 10552 10557 10561 10565 10569 10571 10573 10575 10577 10578 10580 10580 10581 10580 10579
10175 10196 10218 10237 10256 10275 10293 10311 10328 10344 10358 10373 10389 10404 10417 10429 10439 10448 10460 10470 10479 10486 10494 10500 10506 10513 10520 10525 10530 10535 10540 10544 10548 10551 10553 10555 10556 10559 10560 10560 10560 10560 10560
10157 10177 10196 10217 10236 10256 10273 10288 10306 10322 10336 10351 10367 10381 10394 10407 10418 10429 10439 10450 10457 10464 10472 10479 10485 10492 10499 10504 10509 10515 10519 10523 10527 10530 10531 10532 10537 10538 10539 10540 10540 10541 10539
10135 10152 10171 10196 10218 10235 10254 10268 10282 10298 10314 10330 10344 10359 10373 10388 10399 10409 10419 10430 10437 10442 10449 10456 10464 10471 10477 10481 10488 10492 10497 10503 10506 10507 10509 10513 10516 10517 10520 10520 10520 10518 10517
10115 10135 10157 10177 10196 10213 10231 10247 10260 10275 10293 10307 10323 10339 10352 10364 10375 10386 10396 10405 10412 10419 10423 10435 10444 10450 10456 10459 10465 10469 10474 10479 10483 10485 10488 10492 10494 10496 10497 10496 10498 10499 10498
10103 10121 10140 10157 10174 10193 10207 10223 10240 10254 10269 10284 10300 10315 10329 10341 10353 10363 10370 10380 10388 10394 10398 10409 10420 10427 10431 10437 10440 10446 10451 10454 10459 10463 10465 10469 10472 10473 10474 10476 10476 10477 10477
10086 10101 10118 10133 10149 10163 10183 10201 10217 10232 10245 10260 10276 10291 10305 10317 10329 10339 10347 10358 10366 10372 10376 10383 10394 10404 10409 10413 10418 10422 10427 10429 10434 10438 10441 10445 10447 10450 10451 10452 10454 10454 10452
10066 10079 10093 10112 10127 10146 10165 10182 10196 10210 10227 10240 10252 10264 10278 10289 10301 10311 10323 10332 10341 10347 10354 10359 10367 10375 10384 10390 10395 10400 10403 10405 10409 10414 10417 10421 10424 10425 10426 10427 10427 10428 10428
10048 10063 10079 10095 10109 10126 10142 10157 10172 10190 10203 10216 10229 10239 10248 10261 10274 10287 10298 10308 10315 10323 10328 10334 10343 10352 10357 10362 10368 10375 10380 10382 10384 10390 10392 10396 10397 10398 10401 10402 10401 10402 10402
10030 10045 10060 10073 10088 10105 10120 10136 10149 10165 10178 10191 10201 10213 10225 10238 10249 10261 10271 10280 10290 10298 10304 10305 10315 10324 10330 10338 10343 10349 10352 10356 10359 10365 10364 10368 10370 10373 10375 10377 10379 10377 10375